TimePDT,TemperatureF,Dew PointF,Humidity,Sea Level PressureIn,VisibilityMPH,Wind Direction,Wind SpeedMPH,Gust SpeedMPH,PrecipitationIn,Events,Conditions,WindDirDegrees,DateUTC
12:56 AM,48.9,43.0,80,30.06,10.0,SW,12.7,-,N/A,,Clear,230,2013-04-01 07:56:00
1:56 AM,50.0,41.0,71,30.06,10.0,SW,13.8,-,N/A,,Clear,220,2013-04-01 08:56:00
2:56 AM,48.9,39.9,71,30.06,10.0,WSW,11.5,-,N/A,,Clear,240,2013-04-01 09:56:00
3:56 AM,48.9,39.9,71,30.06,10.0,WSW,15.0,-,N/A,,Clear,250,2013-04-01 10:56:00
4:56 AM,48.9,39.0,69,30.07,10.0,WSW,12.7,-,N/A,,Clear,240,2013-04-01 11:56:00
5:56 AM,48.0,39.0,71,30.08,10.0,WSW,15.0,-,N/A,,Clear,250,2013-04-01 12:56:00
6:56 AM,48.0,37.9,68,30.10,10.0,WSW,13.8,-,N/A,,Clear,250,2013-04-01 13:56:00
7:56 AM,51.1,39.0,63,30.12,10.0,WSW,15.0,-,N/A,,Clear,240,2013-04-01 14:56:00
8:56 AM,55.0,37.9,53,30.12,10.0,West,17.3,24.2,N/A,,Clear,260,2013-04-01 15:56:00
9:56 AM,59.0,37.0,44,30.12,10.0,West,19.6,-,N/A,,Clear,260,2013-04-01 16:56:00
10:56 AM,61.0,36.0,39,30.12,10.0,WNW,17.3,27.6,N/A,,Clear,290,2013-04-01 17:56:00
11:56 AM,64.0,36.0,35,30.11,10.0,WNW,21.9,27.6,N/A,,Clear,290,2013-04-01 18:56:00
12:56 PM,66.0,35.1,32,30.09,10.0,West,15.0,-,N/A,,Clear,270,2013-04-01 19:56:00
1:56 PM,66.9,33.1,28,30.07,10.0,West,18.4,31.1,N/A,,Clear,270,2013-04-01 20:56:00
2:56 PM,66.9,33.1,28,30.05,10.0,WSW,23.0,27.6,N/A,,Clear,250,2013-04-01 21:56:00
3:56 PM,68.0,33.1,27,30.03,10.0,West,23.0,26.5,N/A,,Clear,280,2013-04-01 22:56:00
4:56 PM,66.0,32.0,28,30.02,10.0,WNW,24.2,31.1,N/A,,Clear,300,2013-04-01 23:56:00
5:56 PM,64.0,33.1,31,30.04,10.0,WNW,24.2,31.1,N/A,,Clear,290,2013-04-02 00:56:00
6:54 PM,59.0,42.8,55,30.06,10.0,SW,12.7,-,N/A,,Clear,230,2013-04-02 01:54:00
6:56 PM,59.0,42.1,53,30.06,10.0,SW,11.5,-,N/A,,Clear,230,2013-04-02 01:56:00
7:56 PM,55.9,43.0,62,30.05,10.0,SW,18.4,25.3,N/A,,Clear,230,2013-04-02 02:56:00
8:56 PM,55.0,41.0,59,30.06,10.0,SSW,12.7,-,N/A,,Clear,210,2013-04-02 03:56:00
9:56 PM,55.9,39.9,55,30.04,10.0,SW,10.4,-,N/A,,Clear,220,2013-04-02 04:56:00
10:56 PM,57.0,37.9,49,30.03,10.0,WNW,23.0,33.4,N/A,,Clear,290,2013-04-02 05:56:00
11:56 PM,55.0,39.0,55,30.04,10.0,West,16.1,19.6,N/A,,Clear,270,2013-04-02 06:56:00